sat.trackr.live / text

‹ back to catalog

STARLINK-35595

NORAD 66101 · 2025-236R

PAYLOAD ACTIVE UNKNOWN

§ Identity

Operator
Country
US
Launch date
2025-10-19
Launch site
AFWTR
Launch vehicle
Mass (kg)
RCS (m²)

Purposes: comms

External: N2YO · Heavens-Above · Gunter

§ Orbital elements

Epoch: 2026-05-24T04:56:23.591040Z

Period
94.11 min
Inclination
53.1571°
Eccentricity
0.0001043
Mean motion
15.30201775 rev/d
Perigee alt
474.5 km
Apogee alt
475.9 km
Semi-major
6,853.3 km
B*
3.2135e-4
RAAN
113.3063°
Arg perigee
90.2692°
Mean anomaly
269.8429°
Rev number
3,444

§ Raw data

STARLINK-355951 66101U 25236R   26144.20582860  .00009171  00000+0  32135-3 0  99942 66101  53.1571 113.3063 0001043  90.2692 269.8429 15.30201775 34447

JSON: /api/v1/satellites/66101 · /tle

For live sub-satellite position, see the globe view (requires WebGL).

§ Visibility from observer

Set your observer location to see the next 7 days of passes ≥ 10°. The values pass through the URL so the page stays shareable.

No JS? Fill the form by hand. The geolocation button needs JavaScript.